Regional Weather Roundup
Issued by NWS Spokane, WA

Home | Current Version | Previous Version | Text Only | Print | Product List | Glossary On
Versions: 1 2 3 4 5 6 7 8 9 10 11 12 13 14 15 16 17 18 19 20 21 22 23 24 25 26 27 28 29 30 31 32 33 34 35 36 37 38 39 40 41 42 43 44 45 46 47 48 49 50
000
NZUS01 KOTX 261025
RWROTX

Eastern Washington/Northern Idaho Roundup
National Weather Service, Spokane WA
300 AM PDT FRI MAY 26 2017

Note: "fair" indicated few or no clouds below 12,000 feet with no
significant weather and/or obstructions to visibility.

...Northeast Washington and Northern Idaho Panhandle...

CITY           SKY/WX    TMP DP  RH WIND       PRES   REMARKS
Spokane Intl   PTCLDY    47  39  74 CALM      29.89R
Spokane Downto CLEAR     47  44  90 CALM      29.89S
Coeur d Alene  CLEAR     47  41  80 E6        29.89S
Deer Park      CLEAR     44  40  85 N6        29.89S
Sandpoint      CLEAR     41  39  93 CALM      29.90S
Bonners Ferry  FAIR      45  41  87 CALM      29.93R

...Southeast Washington and southern Idaho Panhandle...

CITY           SKY/WX    TMP DP  RH WIND       PRES   REMARKS
Walla Walla    CLOUDY    50  44  80 E6        29.88R
Pullman/Moscow CLEAR     43  37  79 CALM      29.89S
Lewiston       PTCLDY    50  43  77 CALM      29.87R
Lowell           N/A     46  43  89 N3        29.91R
Grangeville    FAIR      43  37  81 SE3       29.89R

...Columbia Basin...

CITY           SKY/WX    TMP DP  RH WIND       PRES   REMARKS
Ephrata        CLEAR     54  41  61 NW5       29.88R
Moses Lake     CLEAR     48  42  80 NE3       29.89S
Pasco          CLEAR     45  43  93 CALM      29.89R
Richland       SUNNY     46  44  91 CALM      29.89S
Hermiston      CLEAR     45  42  89 S6        29.88R
Pendleton      CLEAR     42  40  92 SE3       29.88R

...East Slopes Cascades...

CITY           SKY/WX    TMP DP  RH WIND       PRES   REMARKS
The Dalles     CLEAR     51  45  79 E3        29.90R
Yakima         CLEAR     48  42  80 W5        29.91R
Ellensburg     CLEAR     47  42  83 CALM      29.91R
Stampede Pass  CLEAR     46  43  89 SW3       29.95S
Wenatchee      CLEAR     54  44  69 NW5       29.90R
Omak           CLEAR     45  41  86 CALM      29.91R
Chelan           N/A     52  43  71 MISG        N/A
Sunnyside      SUNNY     42  40  93 CALM      29.91R

...Southern British Columbia...

CITY           SKY/WX    TMP DP  RH WIND       PRES   REMARKS
Penticton      PTCLDY    46  43  87 CALM      29.91S
Cranbrook      PTCLDY    43  37  81 SW5       29.95R
Osoyoos          N/A     46  45  93 E1          N/A
Creston          N/A     48  39  71 NW3         N/A

...Western Montana...

CITY           SKY/WX    TMP DP  RH WIND       PRES   REMARKS
Kalispell      MOSUNNY   44  39  82 N7        29.92R
Missoula       CLOUDY    47  37  68 N5        29.91R

...Neighboring Cities...

CITY           SKY/WX    TMP DP  RH WIND       PRES   REMARKS
Seattle        CLEAR     57  48  72 NE6       29.92R
Portland       CLEAR     55  49  80 CALM      29.89R
Boise          MOCLDY    49  42  77 SW3       29.82R
Great Falls    PTCLDY    38  34  85 W7        29.94R
Calgary        PTCLDY    43  34  70 VRB2      29.89R



USA.gov is the U.S. government's official web portal to all federal, state and local government web resources and services.